Creek Data

    Home     View Charts     View Raw Data     Messages

ID Distance Battery Voltage Battery Current Internal Temp Internal Humidity External Temp Solar Input rssi snr Time Stamp Record
32643 12.9 3.74 0 65 36 57 5.1 -79 8 02/17/2025 12:30 PM 14315
32642 12.9 4.03 0 67 34 59 5.1 -79 8 02/17/2025 12:15 PM 14314
32641 12.9 3.74 0 66 34 61 5.1 -78 8 02/17/2025 12:00 PM 14313
32640 12.9 3.74 0 61 35 60 5.1 -79 8 02/17/2025 11:45 AM 14312
32639 12.8 3.75 0 59 35 58 5.1 -79 7 02/17/2025 11:30 AM 14311
32638 12.9 3.89 0 58 36 57 5.1 -79 8 02/17/2025 11:15 AM 14310
32637 12.8 3.75 0 57 35 57 5.1 -79 8 02/17/2025 11:00 AM 14309
32636 12.8 3.75 0 55 36 55 5.1 -81 8 02/17/2025 10:45 AM 14308
32635 12.8 4.06 0 53 36 54 5.1 -82 8 02/17/2025 10:30 AM 14307
32634 12.8 4.06 0 52 36 54 5.1 -84 8 02/17/2025 10:15 AM 14306
32633 12.8 3.84 0 51 36 53 5.1 -84 8 02/17/2025 10:00 AM 14305
32632 12.8 3.75 0 50 36 51 5.1 -84 8 02/17/2025 09:45 AM 14304
32631 12.8 3.76 0 49 36 50 5.1 -82 8 02/17/2025 09:30 AM 14303
32630 12.8 3.76 0 48 35 50 5.1 -82 8 02/17/2025 09:15 AM 14302
32629 12.8 3.78 0 48 35 49 5.1 -82 7 02/17/2025 09:00 AM 14301
32628 12.8 3.99 109 46 35 48 4.5 -83 8 02/17/2025 08:45 AM 14300
32627 12.7 3.97 86 45 35 47 4.5 -84 8 02/17/2025 08:30 AM 14299
32626 12.7 3.88 77 43 35 44 4.5 -85 7 02/17/2025 08:15 AM 14298
32625 12.7 3.85 37 41 35 43 4.5 -85 8 02/17/2025 08:00 AM 14297
32624 12.7 3.83 23 39 36 41 4.5 -86 8 02/17/2025 07:45 AM 14296
32623 12.7 3.84 0 38 37 40 4.5 -84 8 02/17/2025 07:30 AM 14295
32622 12.7 3.66 0 37 37 39 4.5 -81 9 02/17/2025 07:15 AM 14294
32621 12.7 3.58 -8 36 37 38 4.5 -84 9 02/17/2025 07:00 AM 14293
32620 12.7 3.60 -7 36 38 38 1.6 -84 9 02/17/2025 06:45 AM 14292
32619 12.7 3.74 -5 36 37 38 0 -83 8 02/17/2025 06:30 AM 14291